Вернуться в каталог

STARLINK-3281

АктивенСвязьVLEO
NORAD 50183·PAYLOAD·🇺🇸 United States

Запущен Dec 18, 2021 с Vandenberg Space Force Base

Loading…

Ближайшие Пролёты (ближайшие 24 часа)

TLE

СвежийSource: CelesTrak SupGP

Эпоха: Sep 14, 2026, 20:32 UTC

1 50183C 21125AD  26257.85604167 -.00017157  00000+0 -10134-2 0  2577
2 50183  53.1587 118.6446 0002889  96.8728 290.4962 15.11016680    17

Отслеживайте STARLINK-3281 в реальном времени с AllMySat

Download on the App Store